�N����,����,�~����,�C��,���x,�C��,����,���ϕ���,�ő�u�ԕ���,�ő厞����,���˗�,�I�_���x,�n�����x,�ő啗���N��,DTYPE
"23/07/13","00:10",0.0,23.8,94.9,1002.6,303.2,0.7,1.4,320.3,0.00,23.0,24.4,"00:08:08",1
"23/07/13","00:20",0.0,23.7,94.9,1002.6,314.2,0.8,1.8,312.7,0.00,22.9,24.8,"00:11:36",1
"23/07/13","00:30",0.0,23.8,95.0,1002.9,336.1,0.7,1.7,339.1,0.00,23.0,24.7,"00:28:16",1
"23/07/13","00:40",0.0,23.7,95.1,1002.6,329.8,1.2,2.0,331.5,0.00,22.9,24.5,"00:34:24",1
"23/07/13","00:50",0.0,23.7,95.2,1002.6,288.1,1.0,1.3,266.9,0.00,22.9,24.4,"00:44:40",1
"23/07/13","01:00",0.0,23.6,95.2,1002.6,308.5,1.0,1.6,325.3,0.00,22.8,24.5,"00:51:52",1
"23/07/13","01:10",0.0,23.6,95.3,1002.4,307.9,1.0,1.4,329.6,0.00,22.8,24.6,"01:04:16",1
"23/07/13","01:20",0.0,23.5,95.3,1002.2,301.8,0.5,1.2,310.4,0.00,22.7,24.2,"01:10:24",1
"23/07/13","01:30",0.0,23.4,95.4,1001.9,297.3,0.7,1.4,309.9,0.00,22.7,24.4,"01:23:12",1
"23/07/13","01:40",0.0,23.5,95.5,1002.4,316.6,1.0,1.8,336.3,0.00,22.8,24.4,"01:38:40",1
"23/07/13","01:50",0.0,23.6,95.5,1002.2,310.1,1.1,1.7,341.2,0.00,22.9,24.4,"01:41:28",1
"23/07/13","02:00",0.0,23.4,95.5,1001.7,304.7,0.8,1.7,313.6,0.00,22.7,24.5,"01:52:16",1
"23/07/13","02:10",0.0,23.4,95.6,1002.2,277.6,0.7,1.4,246.8,0.00,22.7,24.4,"02:09:52",1
"23/07/13","02:20",0.0,23.4,95.7,1001.9,308.8,1.0,2.2,337.6,0.00,22.7,24.5,"02:19:28",1
"23/07/13","02:30",0.0,23.5,95.7,1001.9,319.4,1.0,1.6,323.6,0.00,22.8,24.3,"02:21:44",1
"23/07/13","02:40",0.0,23.5,95.7,1002.2,302.8,0.8,1.3,296.8,0.00,22.8,24.4,"02:39:52",1
"23/07/13","02:50",0.0,23.4,95.7,1001.9,270.3,0.6,1.2,320.4,0.00,22.7,24.3,"02:48:08",1
"23/07/13","03:00",0.0,23.5,95.8,1001.9,347.3,0.8,1.8,338.1,0.00,22.8,24.2,"02:56:56",1
"23/07/13","03:10",0.0,23.5,95.8,1001.7,322.1,1.0,1.7,313.6,0.00,22.8,24.3,"03:02:56",1
"23/07/13","03:20",0.0,23.5,95.9,1001.7,289.8,0.8,1.6,330.9,0.00,22.8,24.2,"03:10:56",1
"23/07/13","03:30",0.0,23.5,95.9,1001.7,307.1,0.8,1.3,319.5,0.00,22.8,24.1,"03:24:16",1
"23/07/13","03:40",0.0,23.5,96.0,1001.9,307.0,0.6,1.1,340.7,0.00,22.9,24.1,"03:30:24",1
"23/07/13","03:50",0.0,23.5,96.0,1001.9,285.0,0.6,1.1,261.7,0.00,22.9,24.2,"03:42:48",1
"23/07/13","04:00",0.0,23.6,96.0,1001.9,336.2,0.8,2.0,358.6,0.00,23.0,24.3,"03:53:52",1
"23/07/13","04:10",0.0,23.6,96.0,1001.9,339.7,1.1,1.9,352.0,0.00,23.0,24.0,"04:02:32",1
"23/07/13","04:20",0.0,23.6,96.0,1002.2,285.7,0.7,1.2,268.0,0.00,23.0,24.1,"04:11:52",1
"23/07/13","04:30",0.0,23.5,96.1,1001.9,278.9,0.8,1.1,254.9,0.00,22.9,24.4,"04:25:28",1
"23/07/13","04:40",0.0,23.5,96.1,1002.2,292.0,0.8,1.2,328.8,0.00,22.9,24.1,"04:39:20",1
"23/07/13","04:50",0.0,23.6,96.1,1002.2,325.5,1.2,2.4,335.6,0.00,23.0,24.4,"04:43:20",1
"23/07/13","05:00",0.0,23.5,96.2,1002.2,300.9,0.5,0.9,338.6,0.00,22.9,24.2,"04:54:00",1
"23/07/13","05:10",0.0,23.5,96.2,1001.9,317.0,0.7,1.1,320.7,0.00,22.9,24.2,"05:01:04",1
"23/07/13","05:20",0.0,23.5,96.2,1002.2,313.6,1.0,1.3,301.5,0.00,22.9,24.2,"05:14:16",1
"23/07/13","05:30",0.0,23.7,96.3,1002.2,327.6,0.8,1.7,320.1,0.00,23.1,24.0,"05:24:24",1
"23/07/13","05:40",0.0,23.7,96.3,1002.4,328.8,0.8,1.4,328.8,0.00,23.1,24.0,"05:38:08",1
"23/07/13","05:50",0.0,23.8,96.2,1002.4,323.2,1.0,1.7,307.5,0.00,23.2,24.0,"05:46:00",1
"23/07/13","06:00",0.0,23.7,96.3,1002.6,291.5,0.7,1.2,309.7,0.00,23.1,23.9,"05:58:08",1
"23/07/13","06:10",0.2,23.8,96.4,1002.6,328.5,1.0,1.7,342.5,0.00,23.2,24.2,"06:09:20",1
"23/07/13","06:20",0.0,24.0,96.4,1002.6,329.5,0.8,2.0,339.7,0.00,23.4,24.2,"06:16:48",1
"23/07/13","06:30",0.0,24.1,96.3,1002.6,266.5,0.3,1.1,333.8,0.00,23.5,24.0,"06:21:20",1
"23/07/13","06:40",0.0,24.2,96.3,1002.9,255.6,0.5,1.0,235.7,0.00,23.6,24.1,"06:33:52",1
"23/07/13","06:50",0.0,24.2,96.3,1003.1,294.4,0.8,1.6,322.6,0.00,23.6,24.1,"06:44:24",1
"23/07/13","07:00",0.2,24.3,96.3,1003.1,310.8,0.8,1.2,318.5,0.00,23.7,23.9,"06:51:36",1
"23/07/13","07:10",0.2,24.4,96.3,1003.4,314.0,0.5,1.0,334.6,0.00,23.8,24.2,"07:07:04",1
"23/07/13","07:20",0.2,24.3,96.4,1002.9,317.3,0.7,1.2,330.4,0.01,23.7,24.2,"07:12:08",1
"23/07/13","07:30",0.4,24.3,96.3,1002.9,308.2,0.6,1.2,337.6,0.01,23.7,23.8,"07:24:24",1
"23/07/13","07:40",0.4,24.2,96.4,1003.1,334.8,0.8,1.7,350.2,0.00,23.6,24.2,"07:33:44",1
"23/07/13","07:50",0.2,24.3,96.3,1003.1,320.6,0.6,1.2,315.6,0.00,23.7,24.2,"07:40:48",1
"23/07/13","08:00",0.2,24.4,96.3,1002.9,158.4,0.2,0.8,331.6,0.00,23.8,24.0,"07:50:16",1
"23/07/13","08:10",0.6,24.4,96.3,1003.1,331.4,0.5,1.1,345.3,0.00,23.8,24.2,"08:04:48",1
"23/07/13","08:20",0.4,24.3,96.3,1003.6,357.4,0.6,1.1,349.7,0.00,23.7,24.1,"08:16:32",1
"23/07/13","08:30",0.6,24.3,96.3,1003.4,299.1,0.2,0.6,341.3,0.00,23.7,24.2,"08:29:04",1
"23/07/13","08:40",0.4,24.3,96.3,1003.4,132.2,0.2,1.0,144.5,0.00,23.7,24.0,"08:39:12",1
"23/07/13","08:50",0.4,24.3,96.3,1003.6,306.8,0.2,0.9,351.7,0.00,23.7,24.2,"08:49:28",1
"23/07/13","09:00",0.2,24.2,96.3,1003.6,325.5,0.5,1.1,336.2,0.00,23.6,24.1,"08:55:28",1
"23/07/13","09:10",0.2,24.2,96.3,1003.6,332.6,0.6,1.6,345.5,0.00,23.6,24.0,"09:09:08",1
"23/07/13","09:20",0.0,24.2,96.4,1004.1,295.4,0.3,1.1,345.1,0.00,23.6,24.1,"09:19:44",1
"23/07/13","09:30",0.0,24.3,96.4,1003.4,249.7,0.3,1.0,300.8,0.01,23.7,23.9,"09:28:32",1
"23/07/13","09:40",0.0,24.3,96.4,1003.1,321.8,0.5,0.8,340.1,0.03,23.7,24.0,"09:30:24",1
"23/07/13","09:50",0.0,24.4,96.4,1003.4,328.7,0.7,1.3,332.7,0.03,23.8,24.0,"09:42:16",1
"23/07/13","10:00",0.2,24.5,96.4,1003.6,344.7,0.6,1.2,349.4,0.03,23.9,23.9,"09:51:52",1
"23/07/13","10:10",0.0,24.7,96.4,1003.1,322.1,0.3,0.9,236.2,0.07,24.1,24.0,"10:08:32",1
"23/07/13","10:20",0.0,24.7,96.4,1003.6,259.1,0.6,1.0,238.7,0.04,24.1,24.2,"10:11:04",1
"23/07/13","10:30",0.0,24.7,96.3,1003.4,261.4,0.5,1.0,250.7,0.03,24.1,24.1,"10:24:00",1
"23/07/13","10:40",0.0,24.8,96.3,1003.4,328.4,0.7,1.3,325.2,0.03,24.2,24.0,"10:38:40",1
"23/07/13","10:50",0.0,24.9,96.3,1003.4,272.7,0.6,1.3,243.1,0.03,24.3,23.9,"10:47:04",1
"23/07/13","11:00",0.0,25.3,96.4,1002.9,250.9,0.7,1.6,263.3,0.17,24.7,24.2,"10:56:48",1
"23/07/13","11:10",0.0,25.5,96.2,1003.1,303.5,0.8,1.6,252.7,0.13,24.9,23.9,"11:02:32",1
"23/07/13","11:20",0.0,25.7,96.1,1002.9,357.8,0.7,1.6,338.0,0.11,25.1,24.2,"11:14:24",1
"23/07/13","11:30",0.0,26.2,96.0,1002.9,74.3,0.2,0.8,112.6,0.14,25.6,23.9,"11:24:24",1
"23/07/13","11:40",0.0,26.1,95.7,1002.9,125.2,0.5,1.6,120.4,0.13,25.4,24.1,"11:39:20",1
"23/07/13","11:50",0.0,26.5,95.7,1002.4,105.2,0.5,1.2,101.5,0.23,25.8,24.2,"11:42:56",1
"23/07/13","12:00",0.0,26.8,95.5,1002.4,138.8,0.5,1.6,197.5,0.23,26.1,24.2,"11:53:28",1
"23/07/13","12:10",0.0,26.7,95.4,1002.2,1.5,0.8,1.6,14.5,0.17,25.9,24.2,"12:04:24",1
"23/07/13","12:20",0.0,26.8,95.3,1002.4,355.9,0.7,1.7,23.2,0.13,26.0,24.2,"12:11:36",1
"23/07/13","12:30",0.0,26.4,95.1,1002.4,353.7,0.7,2.1,350.0,0.09,25.6,24.2,"12:28:00",1
"23/07/13","12:40",0.0,26.4,95.0,1002.6,7.3,0.8,1.6,32.6,0.06,25.6,24.1,"12:33:28",1
"23/07/13","12:50",0.0,26.7,94.8,1002.4,38.3,0.2,0.8,144.3,0.07,25.8,24.2,"12:48:56",1
"23/07/13","13:00",0.0,27.0,94.7,1002.4,126.6,0.3,1.0,344.7,0.10,26.1,24.3,"12:51:36",1
"23/07/13","13:10",0.0,26.7,94.3,1002.2,20.7,0.7,2.6,349.3,0.11,25.7,24.0,"13:09:52",1
"23/07/13","13:20",0.0,26.7,93.9,1002.4,299.2,1.1,3.5,352.8,0.10,25.7,24.4,"13:14:32",1
"23/07/13","13:30",0.0,26.8,92.9,1002.2,296.4,1.0,2.9,239.6,0.09,25.6,24.2,"13:22:16",1
"23/07/13","13:40",0.0,26.9,92.0,1002.2,315.5,1.3,2.6,325.7,0.09,25.5,24.4,"13:31:52",1
"23/07/13","13:50",0.0,27.0,90.8,1002.4,308.2,1.6,3.9,320.3,0.07,25.4,24.2,"13:47:28",1
"23/07/13","14:00",0.0,27.5,89.7,1002.2,309.1,1.1,2.8,352.5,0.09,25.7,24.2,"13:51:04",1
"23/07/13","14:10",0.0,27.5,88.0,1002.4,310.3,1.1,2.5,316.2,0.08,25.4,24.1,"14:08:40",1
"23/07/13","14:20",0.0,27.7,86.8,1002.2,312.7,1.2,2.8,332.0,0.08,25.3,24.2,"14:10:08",1
"23/07/13","14:30",0.0,27.5,86.2,1002.4,326.8,1.3,2.9,343.0,0.05,25.0,24.4,"14:22:24",1
"23/07/13","14:40",0.0,27.5,86.0,1002.4,275.4,0.7,1.3,256.8,0.03,25.0,24.5,"14:30:48",1
"23/07/13","14:50",0.0,27.5,86.3,1002.4,312.8,0.7,2.1,344.0,0.03,25.0,24.4,"14:47:12",1
"23/07/13","15:00",0.0,27.5,86.9,1002.2,353.4,0.6,1.4,338.0,0.03,25.2,24.4,"14:50:16",1
"23/07/13","15:10",0.2,27.5,87.6,1002.6,348.1,0.7,1.7,350.8,0.03,25.3,24.3,"15:05:52",1
"23/07/13","15:20",0.2,27.2,88.4,1002.2,339.0,0.6,1.4,346.1,0.05,25.2,24.4,"15:15:04",1
"23/07/13","15:30",0.0,27.1,89.1,1001.9,316.9,0.6,1.0,340.2,0.05,25.2,24.2,"15:21:36",1
"23/07/13","15:40",0.2,26.9,89.7,1002.4,337.0,0.7,1.8,330.5,0.06,25.1,24.3,"15:30:48",1
"23/07/13","15:50",0.0,26.7,90.2,1002.6,316.4,0.7,1.1,331.3,0.05,25.0,24.5,"15:40:24",1
"23/07/13","16:00",0.0,26.5,90.5,1002.4,279.4,0.5,1.0,244.0,0.02,24.9,24.5,"15:54:00",1
"23/07/13","16:10",0.0,26.5,90.9,1002.4,341.0,0.6,1.2,338.4,0.02,24.9,24.2,"16:00:40",1
"23/07/13","16:20",0.0,26.5,91.1,1002.4,301.6,0.6,1.1,340.3,0.03,25.0,24.5,"16:14:24",1
"23/07/13","16:30",0.0,26.3,91.5,1002.6,316.2,0.8,1.4,335.6,0.01,24.8,24.4,"16:21:36",1
"23/07/13","16:40",0.0,26.2,91.7,1002.4,314.4,0.6,1.2,250.8,0.00,24.8,24.5,"16:33:44",1
"23/07/13","16:50",0.8,26.0,91.9,1003.1,268.1,0.2,0.6,329.3,0.00,24.6,24.4,"16:40:08",1
"23/07/13","17:00",0.6,25.9,92.1,1003.4,272.2,0.6,1.7,238.9,0.00,24.6,24.3,"16:53:04",1
"23/07/13","17:10",3.6,25.7,92.4,1002.9,214.1,0.6,1.3,145.3,0.00,24.4,24.6,"17:08:56",1
"23/07/13","17:20",1.2,25.4,92.6,1003.6,139.2,0.6,1.3,167.8,0.00,24.2,24.7,"17:11:52",1
"23/07/13","17:30",3.2,25.5,92.9,1003.6,343.3,0.7,2.0,2.1,0.00,24.3,24.5,"17:29:38",1
"23/07/13","17:40",0.8,25.3,93.0,1003.4,168.5,0.2,1.1,6.6,0.00,24.1,24.6,"17:30:08",1
"23/07/13","17:50",0.6,25.1,93.1,1003.6,145.3,0.0,0.4,242.5,0.00,23.9,24.4,"17:48:32",1
"23/07/13","18:00",0.8,24.9,93.2,1003.4,74.2,0.3,0.9,73.8,0.00,23.8,24.5,"17:56:32",1
"23/07/13","18:10",0.8,24.8,93.5,1003.4,352.7,0.7,1.3,344.3,0.00,23.7,24.4,"18:02:24",1
"23/07/13","18:20",0.6,24.8,93.7,1003.1,333.0,0.6,1.4,359.4,0.00,23.8,24.6,"18:12:16",1
"23/07/13","18:30",0.0,24.8,93.9,1003.4,181.4,0.2,0.6,263.7,0.00,23.8,24.5,"18:28:56",1
"23/07/13","18:40",0.0,24.7,94.0,1003.4,333.2,0.2,0.5,322.9,0.00,23.7,24.6,"18:31:20",1
"23/07/13","18:50",0.4,24.5,94.1,1003.4,192.7,0.6,1.4,227.8,0.00,23.5,24.4,"18:47:36",1
"23/07/13","19:00",0.0,24.4,94.2,1003.6,266.5,0.3,1.0,338.3,0.00,23.4,24.4,"18:53:04",1
"23/07/13","19:10",0.0,24.3,94.3,1003.6,170.6,0.3,1.2,228.6,0.00,23.4,24.5,"19:03:44",1
"23/07/13","19:20",0.2,24.3,94.4,1003.8,34.6,0.2,0.5,52.5,0.00,23.4,24.5,"19:15:38",1
"23/07/13","19:30",0.2,24.5,94.5,1004.3,338.7,0.7,1.2,347.0,0.00,23.6,24.4,"19:28:48",1
"23/07/13","19:40",0.2,24.5,94.6,1004.1,343.8,0.6,1.4,344.3,0.00,23.6,24.3,"19:31:04",1
"23/07/13","19:50",0.0,24.4,94.6,1004.3,287.3,0.2,0.8,254.1,0.00,23.5,24.4,"19:44:24",1
"23/07/13","20:00",0.2,24.4,94.8,1004.5,346.0,0.3,0.6,342.8,0.00,23.6,24.5,"19:51:52",1
"23/07/13","20:10",0.0,24.4,94.9,1004.3,276.1,0.5,1.4,219.1,0.00,23.6,24.5,"20:09:36",1
"23/07/13","20:20",0.0,24.4,94.9,1004.3,178.9,0.6,1.7,205.8,0.00,23.6,24.3,"20:11:44",1
"23/07/13","20:30",0.0,24.5,95.0,1004.3,77.8,0.6,1.2,18.2,0.00,23.7,24.3,"20:28:40",1
"23/07/13","20:40",0.0,24.3,95.0,1004.5,332.8,1.0,2.4,344.2,0.00,23.5,24.3,"20:38:48",1
"23/07/13","20:50",0.0,24.0,95.3,1004.8,328.9,0.8,1.7,316.6,0.00,23.2,24.4,"20:43:44",1
"23/07/13","21:00",0.0,24.0,95.4,1004.5,347.0,0.5,1.1,345.3,0.00,23.3,24.3,"20:54:24",1
"23/07/13","21:10",0.0,24.0,95.5,1004.5,5.7,0.3,1.8,12.4,0.00,23.3,24.3,"21:09:36",1
"23/07/13","21:20",0.0,24.0,95.5,1004.8,357.8,0.6,1.1,324.3,0.00,23.3,24.4,"21:19:52",1
"23/07/13","21:30",0.0,24.0,95.6,1005.0,342.7,0.8,1.7,344.9,0.00,23.3,24.3,"21:24:40",1
"23/07/13","21:40",0.0,23.9,95.7,1004.8,346.5,0.7,1.8,340.4,0.00,23.2,24.4,"21:31:28",1
"23/07/13","21:50",0.0,23.8,95.8,1005.0,322.3,1.1,2.2,320.8,0.00,23.1,24.5,"21:45:36",1
"23/07/13","22:00",0.0,23.8,95.8,1005.0,342.8,0.7,2.4,345.0,0.00,23.1,24.3,"21:52:56",1
"23/07/13","22:10",0.0,23.7,95.9,1005.2,291.5,0.8,1.4,333.6,0.00,23.0,24.2,"22:08:00",1
"23/07/13","22:20",0.0,23.7,95.9,1005.0,253.5,0.7,1.3,254.5,0.00,23.0,24.3,"22:15:52",1
"23/07/13","22:30",0.2,23.7,96.0,1005.0,272.6,0.6,1.1,250.1,0.00,23.1,24.2,"22:20:48",1
"23/07/13","22:40",0.0,23.7,96.0,1004.8,323.4,0.8,1.4,332.2,0.00,23.1,24.1,"22:36:48",1
"23/07/13","22:50",0.0,23.6,96.0,1005.0,312.3,0.5,1.2,331.5,0.00,23.0,24.3,"22:40:16",1
"23/07/13","23:00",0.0,23.6,96.1,1005.0,270.8,0.7,1.2,251.2,0.00,23.0,24.1,"22:50:40",1
"23/07/13","23:10",0.0,23.4,96.2,1004.5,282.4,0.6,1.6,244.8,0.00,22.8,24.2,"23:09:20",1
"23/07/13","23:20",0.0,23.4,96.2,1004.8,290.2,0.8,1.7,319.7,0.00,22.8,24.2,"23:18:08",1
"23/07/13","23:30",0.0,23.4,96.3,1004.8,300.5,0.7,1.2,343.0,0.00,22.8,24.2,"23:20:08",1
"23/07/13","23:40",0.0,23.3,96.3,1005.0,292.6,0.3,1.0,257.3,0.00,22.7,24.2,"23:36:40",1
"23/07/13","23:50",0.0,23.2,96.4,1004.8,298.5,0.6,2.0,341.0,0.00,22.6,24.0,"23:40:02",1
"23/07/13","24:00",0.0,23.3,96.5,1004.5,304.2,1.0,1.6,344.9,0.00,22.8,24.2,"23:50:08",1
